User: anonymous   Login
Location: Unspecified
(0.0000°N, 0.0000°E)
Time: 14:47:54
(UTC+02:00)
Language:

Cosmos 1833 Rocket - Orbit

View from above orbital plane
View from above orbital plane
View from above satellite
View from above satellite

Ground track
Ground track

The orbit data is extracted from the following two-line orbital elements,

1 17590U 87027B   16241.96416433 -.00000209  00000-0 -80410-4 0  9996
2 17590  71.0031  45.3130 0004509   2.1836 357.9307 14.16730902522736
Epoch (UTC): 28 August 2016 23:08:23
Eccentricity: 0.0004509
inclination: 71.0031°
perigee height: 833 km
apogee height: 839 km
right ascension of ascending node: 45.3130°
argument of perigee: 2.1836°
revolutions per day: 14.16730902
mean anomaly at epoch: 357.9307°
orbit number at epoch: 52273

The dashed part of the orbit path shows where the satellite is in the earth's shadow,  

DLR